Location: Gopavaram
(16.8181°N, 80.9693°E)
Time: 16:34:18
(UTC+00:00)

Daily predictions for brighter satellites

Satellite Brightness Start Highest point End
(mag) Time Altitude Azimuth Time Altitude Azimuth Time Altitude Azimuth
CORIOLIS 4.2 12:17:10 10° SSE 12:22:29 68° ENE 12:27:51 10° N
Meteor 1-10 Rocket 4.3 12:19:25 10° S 12:25:15 80° E 12:30:59 10° N
Cosmos 482 Debris 3.6 12:23:07 10° SW 12:25:40 86° SE 12:29:38 10° NE
Cosmos 1867 4.3 12:21:53 10° SW 12:27:08 55° WNW 12:32:28 10° NNE
Cosmos 1666 2.7 12:23:41 10° N 12:27:18 54° E 12:30:56 10° SSE
VEP-3 3.7 12:22:17 10° SW 12:27:47 35° SSE 12:33:58 10° E
CZ-4C R/B 3.9 12:25:13 10° NE 12:28:13 29° E 12:31:17 10° SSE
AQUARIUS 4.1 12:23:50 10° SSE 12:28:19 82° ENE 12:32:47 10° N
Cosmos 1697 Rocket 3.4 12:23:03 10° NNW 12:28:33 59° WSW 12:34:04 10° S
H-2A R/B 2.4 12:23:47 10° SE 12:28:42 42° ENE 12:33:31 10° N
GPS 2-12 Rocket1 3.0 12:28:19 10° WSW 12:32:53 81° SSE 12:37:20 10° E
USA 32 4.5 12:28:37 10° SSE 12:33:27 40° E 12:38:17 10° NNE
Cosmos 372 Rocket 4.0 12:28:47 10° N 12:34:02 80° ENE 12:39:15 10° SSE
Cosmos 1980 Rocket 2.2 12:29:13 10° N 12:34:47 66° ENE 12:40:19 10° SSE
Cosmos 1937 Rocket 4.4 12:29:44 10° NNW 12:34:54 55° WSW 12:40:01 10° S
Gbstr 26 Del rocket 4.3 12:28:42 10° SSW 12:35:17 48° SE 12:40:35 10° NE
ARGOS 3.9 12:33:21 10° SE 12:37:56 29° ENE 12:42:30 10° NNE
Okean O Rocket 2.6 12:36:34 10° SE 12:40:10 25° ENE 12:43:48 10° NNE
USA 276 3.4 12:39:33 10° NW 12:42:30 43° SW 12:45:29 10° SSE
PSLV R/B 3.6 12:39:55 10° SSE 12:43:35 89° NE 12:47:16 10° N
Cosmos 2369 4.1 12:40:23 10° NNW 12:46:02 69° WSW 12:51:40 10° S
Meteosat 1 Rocket2 3.7 12:43:36 10° W 12:48:12 41° NNW 12:51:08 15° NE
Cosmos 1666 Rocket 4.1 12:43:54 10° NNW 12:48:13 63° W 12:52:29 10° S
Aureole 3 Rocket 2.8 12:46:09 10° S 12:49:33 63° E 12:54:00 10° NNE
SL-16 R/B 3.4 12:48:01 10° NNE 12:51:52 19° ENE 12:55:41 10° ESE
Cosmos 1470 Rocket 3.7 12:47:34 10° N 12:51:56 53° E 12:56:18 10° SSE
GPS 2-04 Rocket1 4.1 12:52:29 10° NNW 12:55:45 22° NNE 12:57:03 19° NE
deb Chang Zheng 4 3.7 12:53:18 10° SSE 12:57:26 49° ENE 13:01:35 10° N
CZ-4 R/B 3.5 12:56:02 10° ESE 12:56:24 11° ESE 12:56:24 11° ESE
Cosmos 1544 3.2 12:57:07 10° N 13:00:39 48° E 13:04:09 10° SSE
DNEPR-1 R/B 4.1 12:58:48 10° S 13:04:03 50° ESE 13:06:51 22° NE
Cosmos 2278 3.7 13:02:55 10° NNW 13:08:36 84° WSW 13:14:15 10° SSE
Cosmos 1655 Rocket 3.9 13:05:17 10° N 13:11:37 78° E 13:17:54 10° S
Delta 198 4.5 13:08:03 10° WNW 13:14:12 64° NNE 13:18:15 25° E
CZ-2C R/B 4.5 13:10:28 10° NNW 13:14:50 28° WNW 13:19:14 10° SW
H-2A R/B 2.4 13:13:28 26° NE 13:15:39 46° E 13:19:52 10° S
H-2A R/B 4.2 13:13:07 10° SW 13:19:36 18° S 13:21:59 12° SE
CZ-4B R/B 3.3 13:14:42 10° S 13:20:10 78° WSW 13:25:33 10° NNW
Hubble Space Telescope 2.8 13:19:41 10° S 13:22:09 15° SSE 13:22:43 15° SE
Cosmos 1553 Rocket 4.3 13:17:51 10° SSE 13:23:41 42° E 13:26:14 29° NE
Cosmos 2228 Rocket 3.2 13:20:27 10° S 13:24:49 74° W 13:29:00 11° N
Cosmos 44 Rocket 3.2 13:24:30 10° NNW 13:29:08 53° ENE 13:31:01 32° SE
Cosmos 1356 Rocket 3.4 13:25:19 10° N 13:29:35 86° W 13:33:52 10° S
SL-27 R/B 3.7 13:27:22 10° SSW 13:30:37 39° WNW 13:32:34 20° NNW
GPS 2-15 Rocket1 3.2 13:30:19 10° W 13:34:58 69° SSW 13:36:15 46° SE
CZ-3 Stage 3 3.7 13:36:46 10° W 13:40:07 26° SW 13:42:00 15° SSE
Cosmos 2298 Rocket 4.2 13:38:47 10° NNW 13:44:05 71° WSW 13:49:22 10° S
BREEZE-M DEB (TANK) 4.4 13:42:13 10° WNW 13:44:24 29° WSW 13:44:24 29° WSW
Okean 1 3.7 13:41:25 10° SSW 13:45:22 61° W 13:46:17 46° NNW
YAOGAN 1 2.5 13:41:23 10° SSE 13:45:19 73° SE 13:45:19 73° SE
Cosmos 1538 Rocket 3.9 13:40:36 10° S 13:45:57 78° ESE 13:46:59 58° NNE
USA 234 4.1 13:47:47 31° NNE 13:47:47 31° NNE 13:52:05 10° NNW
OAO 3 Rocket 4.0 13:42:22 10° SSW 13:46:16 36° SSE 13:46:16 36° SSE
Aurora 2 Rocket 3.7 13:42:00 10° W 13:46:54 57° SSW 13:50:18 28° SE
SWIFT 4.0 13:46:33 10° WSW 13:50:08 27° SSW 13:51:14 24° S
Cosmos 1707 Rocket 3.5 13:46:40 10° S 13:50:42 76° SSW 13:50:42 76° SSW
Cosmos 1818 3.8 13:55:32 10° NNW 14:00:54 67° WSW 14:06:14 10° SSE
CZ-4C R/B 3.8 13:55:55 10° NW 14:04:03 57° WSW 14:12:33 10° S
Cosmos 158 Rocket 4.5 14:07:04 10° SSW 14:11:34 52° W 14:11:34 52° W
Cosmos 1417 Rocket 4.4 14:05:29 10° S 14:11:48 86° W 14:12:24 75° NNW
Cosmos 2322 Rocket 4.2 14:09:51 10° NNW 14:22:46 - SSE 14:10:56 16° NNW
Okean O Rocket 4.5 14:13:37 10° SW 14:16:20 16° W 14:19:04 10° WNW
ATLAS 5 CENTAUR R/B 2.5 14:14:02 10° W 14:19:36 39° WNW 14:19:36 39° WNW
Meteor 2-4 Rocket 4.2 14:16:57 10° SSW 14:21:38 58° SW 14:21:38 58° SW
CZ-4 R/B 4.0 14:30:15 10° SSW 14:32:23 19° WSW 14:32:23 19° WSW
SL-16 R/B 3.6 14:30:47 10° NW 14:35:51 35° WSW 14:40:54 10° SSW
CZ-3B R/B 4.2 14:32:39 10° SW 14:39:40 36° S 14:39:40 36° S
ATLAS 3B CENTAUR R/B 4.5 15:04:22 10° WNW 15:21:03 63° NNW 15:21:03 63° NNW
CZ-3 R/B 4.1 21:11:22 10° SW 22:00:34 69° SSE 22:11:23 10° ENE
ATLAS 3B R/B 3.7 22:06:00 10° S 22:11:52 39° ESE 22:17:50 10° NE
H-2A R/B (2) 3.1 22:45:38 33° NE 22:45:38 33° NE 22:50:26 10° ENE
Cosmos 2208 Rocket 3.8 23:01:02 81° WNW 23:01:14 83° WSW 23:06:29 10° S
Lacrosse 5 3.4 22:57:47 10° S 23:02:21 34° ESE 23:06:56 10° NE
Delta 168 4.0 23:03:58 42° N 23:03:58 42° N 23:09:36 10° ENE
Cosmos 2034 Rocket 4.4 23:11:08 42° WSW 23:11:08 42° WSW 23:16:21 10° SSW
Cosmos 1867 3.5 23:10:28 61° W 23:10:46 62° WSW 23:16:05 10° SSE
Meteor 1-26 Rocket 4.1 23:14:22 33° NNW 23:16:56 73° W 23:22:26 10° S
SJ 16-02 1.2 23:14:56 10° SSW 23:19:18 87° W 23:23:41 10° NNE
OAO 1 4.5 23:18:40 51° WNW 23:20:02 73° SW 23:25:31 10° SE
Envisat 3.1 23:15:05 10° NNE 23:20:08 75° E 23:25:12 10° S
H-2A R/B 2.7 23:19:37 10° NNE 23:23:24 78° E 23:27:14 10° S
SEDSat Delta rocket 3.9 23:21:04 34° WSW 23:24:12 73° NNW 23:30:36 10° ENE
SJ-12 3.9 23:20:50 10° NNE 23:24:58 85° ESE 23:29:05 10° S
GPS 2-17 Rocket1 2.8 23:24:46 55° W 23:25:41 89° NNW 23:30:08 10° ENE
Palapa 6 Rocket 4.3 23:24:50 18° SSW 23:26:53 29° SSE 23:30:21 10° E
Cosmos 1634 Rocket 3.8 23:20:57 10° N 23:27:09 78° W 23:33:18 10° S
Fermi 4.3 23:26:57 40° N 23:27:30 43° NNE 23:31:21 10° E
Gbstr 26 Del rocket 3.0 23:27:42 50° W 23:28:15 54° SW 23:32:50 10° SSE
IUS-1 SRM-2 3.7 23:27:49 28° NNW 23:29:06 34° NNE 23:38:38 10° E
Hubble Space Telescope 1.7 23:30:08 32° SW 23:30:46 33° SSW 23:34:29 10° SE
Meteor 1-31 Rocket 2.8 23:33:11 10° NNE 23:37:05 83° ESE 23:41:00 10° S
CZ-3B R/B 3.0 23:38:38 11° SE 23:38:38 11° SE 23:38:44 10° SE
OAO 3 Copernicus 4.3 23:35:23 30° WSW 23:37:44 62° NNW 23:42:42 10° NE
BREEZE-M DEB (TANK) 4.1 23:35:58 10° SSW 23:40:59 50° SE 23:44:33 10° NE
MOS 1-B Rocket 4.4 23:34:25 10° SSE 23:41:10 68° ENE 23:47:02 10° N
Cosmos 921 Rocket 3.3 23:39:57 30° NW 23:41:43 47° W 23:46:02 10° S
Cosmos 1500 Rocket 4.1 23:39:13 10° S 23:43:35 60° E 23:47:59 10° NNE
DELTA 4 R/B 0.6 23:43:31 56° SW 23:43:51 72° SSE 23:47:21 10° ENE
TSX-5 3.7 23:42:13 24° NNW 23:44:35 65° WSW 23:48:05 10° S
DASH 3.7 23:37:37 10° SW 23:45:58 48° SSE 23:49:00 10° E
Chandra Rocket (1) 1.0 23:52:57 27° WNW 23:54:27 80° SSW 23:56:56 10° ESE
Cosmos 1782 4.5 23:56:58 16° WSW 23:56:58 16° WSW 23:58:50 10° SW
